Torna al catalogo

SL-12 R/B(2)

AttivoMEO
NORAD 23208·ROCKET BODY·🇷🇺 Russia

Lanciato Aug 11, 1994 da Baikonur Cosmodrome

Loading…

Prossimi Passaggi (prossime 24 ore)

TLE

AggiornatoSource: Space-Track

Epoca: Sep 11, 2026, 14:50 UTC

1 23208U 94050F   26254.61860235 -.00000002  00000-0  00000-0 0  9996
2 23208  65.4234 198.0351 0038771 200.3760 338.5612  2.13430658250098

Traccia SL-12 R/B(2) in tempo reale con AllMySat

Download on the App Store